Terminal Aerodrome Forecast
Issued by NWS Grand Forks, ND

Home | Current Version | Previous Version | Graphics & Text | Print | Product List | Glossary On
Versions: 1 2 3 4 5 6 7 8 9 10 11 12 13 14 15
379
FTUS43 KFGF 240512 AAB
TAFFAR
TAF AMD
KFAR 240512Z 2405/2424 01012KT P6SM BKN025
     FM240900 01012KT P6SM SCT030 BKN250=

USA.gov is the U.S. government's official web portal to all federal, state and local government web resources and services.